[[{"header":{"parameterUnit":"m.s-1","parameterCategory":1,"la1":30.2991,"la2":30.254,"lo1":-89.0895,"lo2":-89.0444,"dy":0.0017,"dx":0.0017,"nx":28,"ny":28,"refTime":"2024-05-27T21:00:00:Z","depth":0,"parameterNumber":2,"parameterNumberName":"U-component_of_WINDS"},"data":[0,0,0,0,0,0,0,0,0,0,0,0,0,0,0,0,0,0,0,0,0,0,0,0,0,0,0,0,0,0,0,0,0,0,0,0,0,0,0,0,0,0,0,0,0,0,0,0,0,0,0,0,0,0,0,0,0,0,1.657,1.6571,0,1.6605,1.6605,1.6605,1.6659,1.666,1.6661,1.6662,1.669,1.669,1.669,0,0,0,0,0,0,0,0,0,0,0,0,0,1.6548,1.6548,1.657,1.6571,1.6571,1.6604,1.6605,1.6605,1.6659,1.6661,1.6662,1.6663,1.6691,1.669,1.669,0,0,0,0,0,0,0,0,0,0,0,0,0,1.6567,1.6548,1.657,1.6602,1.6606,1.6604,1.6605,1.6605,1.6659,1.6661,1.6662,1.6663,1.6691,1.669,1.669,1.6658,0,0,1.6689,1.6689,0,0,0,0,0,0,0,0,1.6566,1.6568,1.6597,1.66,1.6604,1.663,1.6607,1.6623,1.6659,1.6638,1.6662,1.6664,1.6668,1.667,1.6673,1.6659,1.6661,1.6689,1.6689,1.6689,1.6689,0,0,0,0,0,0,0,1.6564,1.6567,1.6584,1.6598,1.6602,1.6614,1.6618,1.661,1.6644,1.664,1.6644,1.6648,1.667,1.6673,1.6674,1.6661,1.6689,1.6689,1.6689,1.6689,1.6626,1.6625,0,0,0,0,0,0,1.6559,1.6565,1.6583,1.6585,1.6588,1.6613,1.6618,1.662,1.6645,1.665,1.6647,1.665,1.6673,1.6674,1.6675,1.6642,1.6689,1.6689,1.6688,1.6628,1.6626,1.6624,0,0,0,0,0,0,1.6559,1.656,1.6581,1.6576,1.658,1.6612,1.6613,1.6619,1.6622,1.665,1.6655,1.6644,1.6674,1.6676,1.6663,1.6643,1.6688,1.6688,1.6629,1.6627,1.6625,1.6573,0,0,0,0,0,0,1.6558,1.656,1.6549,1.6576,1.658,1.657,1.6612,1.6619,1.6622,1.6628,1.6648,1.6653,1.6675,1.6663,1.6663,1.6644,1.6688,1.6631,1.6628,1.6626,1.6577,1.6569,1.6563,0,0,0,0,0,1.6557,1.653,1.6548,1.655,1.6567,1.6568,1.6571,1.6599,1.6621,1.6609,1.6628,1.6652,1.6646,1.6662,1.6662,1.6642,1.6633,1.6629,1.6626,1.658,1.6571,1.6563,0,0,0,0,0,0,1.6497,1.6534,1.6554,1.6536,1.6549,1.6578,1.6564,1.6588,1.6593,1.6598,1.6631,1.6635,1.6619,1.6629,1.6646,1.6614,1.6643,1.664,1.6608,1.66,1.6593,1.6591,1.6688,0,0,0,0,0,1.6482,1.6482,1.6514,1.6495,1.6501,1.6532,1.6533,1.6555,1.6568,1.6573,1.659,1.6601,1.6602,1.6601,1.6603,1.6579,1.6584,1.6565,1.6559,1.6553,1.6549,1.6539,1.6532,1.6613,1.6613,1.6613,0,0,1.6451,1.6471,1.6468,1.6484,1.6496,1.6495,1.6536,1.6531,1.653,1.6572,1.6562,1.6575,1.6589,1.6572,1.6565,1.658,1.6528,1.6549,1.6544,1.6543,1.6535,1.6527,1.6521,1.6611,1.6611,1.6612,0,0,1.6393,1.6408,1.6396,1.6409,1.6429,1.645,1.6446,1.6472,1.6484,1.6475,1.6508,1.6506,1.6505,1.6515,1.652,1.647,1.6493,1.6469,1.6434,1.6424,1.6417,1.6412,1.6395,1.6389,1.6466,1.6466,1.6466,0,1.6351,1.6351,1.6385,1.6381,1.6387,1.6428,1.6415,1.6425,1.6443,1.6446,1.6464,1.6467,1.6479,1.6465,1.6454,1.6456,1.6453,1.6467,1.6416,1.6411,1.6406,1.639,1.6384,1.6463,1.6463,1.6463,1.6464,0,1.6299,1.6299,1.6286,1.6307,1.6312,1.6302,1.6334,1.6335,1.6356,1.6375,1.6367,1.6384,1.6391,1.639,1.6409,1.6379,1.6388,1.641,1.644,1.6395,1.6381,1.6375,1.6459,1.646,1.6461,1.6461,0,0,1.6203,1.6246,1.624,1.6251,1.6278,1.6278,1.6271,1.6281,1.6281,1.6293,1.6288,1.6289,1.6311,1.6316,1.6337,1.6328,1.629,1.6352,1.6353,1.6341,1.626,1.6244,1.6237,1.6306,1.6305,1.6304,1.6259,0,1.6151,1.6144,1.6176,1.616,1.6161,1.6202,1.6196,1.6211,1.623,1.6232,1.6251,1.6252,1.628,1.6284,1.6277,1.6296,1.6274,1.63,1.6301,1.6301,1.6297,1.6229,1.6211,1.6168,1.6254,1.6253,1.6252,0,1.6089,1.6102,1.6087,1.6118,1.6119,1.6114,1.6127,1.6129,1.6147,1.6161,1.617,1.6195,1.619,1.6219,1.6213,1.623,1.6232,1.6242,1.6241,1.6242,1.6274,1.6229,1.6155,1.6149,1.6244,1.6245,1.6245,0,1.6022,1.6035,1.6029,1.6037,1.6072,1.6067,1.6081,1.6101,1.6106,1.6117,1.6121,1.613,1.6135,1.6141,1.6169,1.6187,1.616,1.6191,1.6171,1.617,1.6163,1.6163,1.6089,1.6163,1.6164,1.6164,1.6164,0,1.5961,1.595,1.6,1.5996,1.5986,1.6023,1.6011,1.6029,1.6047,1.6047,1.6081,1.608,1.6116,1.6119,1.614,1.6132,1.6134,1.6144,1.615,1.6142,1.614,1.6144,1.6148,1.6162,1.6162,1.6163,1.6163,0,1.5884,1.5916,1.5913,1.5948,1.5956,1.5947,1.5977,1.5974,1.5996,1.5995,1.5997,1.603,1.6035,1.6064,1.6074,1.6089,1.6074,1.6085,1.6068,1.6072,1.6051,1.6053,1.5977,1.5969,1.6048,1.6047,1.6047,0,1.5843,1.5837,1.5873,1.5877,1.589,1.5895,1.5902,1.5938,1.5943,1.5966,1.596,1.5969,1.5978,1.5984,1.6008,1.6017,1.6029,1.6002,1.603,1.6023,1.603,1.603,1.603,1.5995,1.5994,1.5993,1.5993,0,1.5767,1.5785,1.5795,1.5811,1.5819,1.5832,1.5847,1.5848,1.5888,1.5892,1.59,1.5907,1.592,1.5928,1.5942,1.5955,1.598,1.5984,1.598,1.5971,1.5962,1.5968,1.6052,1.5985,1.5986,1.5987,1.5987,1.5987,1.5708,1.5705,1.5731,1.5742,1.5758,1.5772,1.5773,1.5797,1.5804,1.582,1.584,1.5845,1.5866,1.5888,1.5899,1.5903,1.5917,1.5911,1.5909,1.5907,1.5904,1.5962,1.5905,1.5905,1.5905,1.5906,1.5906,0,1.5635,1.5655,1.5664,1.5687,1.5695,1.5722,1.5741,1.5746,1.5751,1.5769,1.5779,1.5788,1.5797,1.5823,1.5835,1.5833,1.5845,1.5835,1.5835,1.5838,1.5889,1.5892,1.5825,1.5825,1.5825,1.5825,1.5825,1.5825,1.5598,1.5596,1.5617,1.5624,1.5643,1.5651,1.566,1.5674,1.5689,1.5699,1.5708,1.5726,1.5748,1.5762,1.5771,1.5779,1.5782,1.5768,1.5779,1.5826,1.5834,1.5841,1.5844,1.5768,1.5768,1.5727,1.5727,1.5726]},{"header":{"parameterUnit":"m.s-1","parameterCategory":1,"la1":30.2991,"la2":30.254,"lo1":-89.0895,"lo2":-89.0444,"dy":0.0017,"dx":0.0017,"nx":28,"ny":28,"refTime":"2024-05-27T21:00:00:Z","depth":0,"parameterNumber":3,"parameterNumberName":"V-component_of_WINDS"},"data":[0,0,0,0,0,0,0,0,0,0,0,0,0,0,0,0,0,0,0,0,0,0,0,0,0,0,0,0,0,0,0,0,0,0,0,0,0,0,0,0,0,0,0,0,0,0,0,0,0,0,0,0,0,0,0,0,0,0,1.1673,1.1676,0,1.1962,1.1965,1.1969,1.2046,1.2045,1.2043,1.2041,1.2339,1.2348,1.2358,0,0,0,0,0,0,0,0,0,0,0,0,0,1.1186,1.1194,1.1673,1.1677,1.168,1.1962,1.1966,1.1969,1.2047,1.2045,1.2043,1.2041,1.2336,1.2347,1.2359,0,0,0,0,0,0,0,0,0,0,0,0,0,1.1428,1.1197,1.1673,1.1753,1.1763,1.1961,1.1966,1.1971,1.2047,1.2045,1.2042,1.204,1.2332,1.2346,1.236,1.25,0,0,1.2404,1.241,0,0,0,0,0,0,0,0,1.1414,1.1446,1.1737,1.1748,1.1759,1.1966,1.1903,1.2148,1.2048,1.1939,1.2041,1.2038,1.2217,1.2241,1.23,1.2514,1.2526,1.2405,1.2414,1.242,1.2424,0,0,0,0,0,0,0,1.1397,1.1434,1.1788,1.1741,1.1755,1.1773,1.1805,1.195,1.2089,1.1949,1.1955,1.1988,1.2222,1.2286,1.2308,1.2531,1.2405,1.2417,1.2426,1.2432,1.2866,1.2869,0,0,0,0,0,0,1.1367,1.1419,1.1778,1.1796,1.1577,1.1784,1.182,1.1902,1.2088,1.2113,1.199,1.199,1.2263,1.2291,1.2319,1.2491,1.242,1.2433,1.2441,1.2863,1.2867,1.287,0,0,0,0,0,0,1.1356,1.1398,1.1767,1.161,1.1658,1.1795,1.1887,1.1909,1.1973,1.2119,1.2144,1.203,1.2262,1.2299,1.2453,1.2503,1.244,1.2453,1.286,1.2865,1.2869,1.2839,0,0,0,0,0,0,1.1342,1.1394,1.145,1.161,1.1666,1.1897,1.189,1.1916,1.1997,1.2001,1.2163,1.2187,1.2263,1.2431,1.2467,1.2521,1.2464,1.2856,1.2862,1.2867,1.2836,1.2842,1.2846,0,0,0,0,0,1.1324,1.1431,1.1452,1.1495,1.1739,1.19,1.1931,1.2016,1.2001,1.2057,1.2149,1.2182,1.249,1.2446,1.2487,1.2547,1.2853,1.286,1.2867,1.2834,1.284,1.2846,0,0,0,0,0,0,1.1276,1.1454,1.1479,1.1642,1.1754,1.1912,1.1987,1.2021,1.2142,1.214,1.224,1.2276,1.2422,1.25,1.2447,1.2688,1.2672,1.2687,1.2633,1.2641,1.2646,1.2625,1.2476,0,0,0,0,0,1.1283,1.1399,1.1549,1.1678,1.1733,1.1849,1.1923,1.1977,1.2099,1.2147,1.2251,1.2368,1.249,1.257,1.2691,1.2846,1.2881,1.2907,1.2912,1.2915,1.2928,1.3011,1.3024,1.2892,1.2892,1.2892,0,0,1.1302,1.1413,1.1482,1.1671,1.1765,1.1881,1.1889,1.2014,1.2101,1.2167,1.2318,1.2397,1.2533,1.2686,1.276,1.2756,1.2971,1.2924,1.2926,1.2937,1.302,1.3032,1.3043,1.2897,1.2896,1.2895,0,0,1.1395,1.1492,1.1608,1.17,1.184,1.1916,1.1943,1.2095,1.2149,1.2301,1.2351,1.2455,1.2666,1.2759,1.2834,1.2954,1.2987,1.299,1.3019,1.3099,1.3109,1.3119,1.316,1.3173,1.3002,1.3002,1.3002,0,1.14,1.1579,1.1663,1.1783,1.1864,1.1924,1.2041,1.2127,1.23,1.2353,1.2346,1.2607,1.2703,1.2877,1.2905,1.2965,1.2998,1.2974,1.3101,1.3111,1.3122,1.3161,1.3177,1.3001,1.3001,1.3001,1.3001,0,1.1577,1.1699,1.1775,1.1938,1.2026,1.2144,1.2245,1.2324,1.2368,1.2443,1.2595,1.2711,1.2855,1.29,1.2946,1.3079,1.3072,1.3081,1.3068,1.3132,1.3171,1.3187,1.3,1.3,1.3001,1.3001,0,0,1.1653,1.1855,1.1882,1.1954,1.2111,1.2206,1.2324,1.2463,1.2527,1.2643,1.2743,1.2916,1.2923,1.3008,1.3064,1.3134,1.3217,1.3135,1.314,1.3145,1.3368,1.336,1.3377,1.3239,1.3242,1.3245,1.3356,0,1.1765,1.1979,1.2055,1.223,1.2342,1.2397,1.25,1.2605,1.2677,1.2781,1.286,1.298,1.2982,1.3033,1.3105,1.3192,1.3264,1.3185,1.3333,1.3337,1.3298,1.3398,1.3392,1.3491,1.3372,1.3375,1.3377,0,1.1926,1.204,1.2225,1.2362,1.2412,1.2503,1.2633,1.2732,1.2851,1.2897,1.2988,1.3038,1.3161,1.3137,1.3306,1.3251,1.3315,1.3366,1.3372,1.339,1.3362,1.3418,1.3526,1.354,1.3402,1.34,1.3398,0,1.196,1.216,1.2296,1.2357,1.252,1.2582,1.2653,1.2769,1.2845,1.2958,1.3008,1.3134,1.3203,1.3298,1.3379,1.3355,1.354,1.3524,1.3582,1.358,1.3621,1.3618,1.374,1.3661,1.366,1.366,1.366,0,1.2078,1.2189,1.2313,1.2397,1.2522,1.2606,1.2726,1.2801,1.2902,1.3,1.3055,1.3145,1.3247,1.3349,1.3413,1.3542,1.3573,1.3614,1.363,1.361,1.3604,1.3654,1.365,1.3664,1.3663,1.3663,1.3662,0,1.214,1.2228,1.2379,1.2518,1.2556,1.2641,1.2761,1.2843,1.2913,1.3036,1.3069,1.3182,1.3305,1.3394,1.3554,1.3596,1.3734,1.375,1.3694,1.3702,1.3754,1.3747,1.3914,1.3939,1.3842,1.3842,1.3843,0,1.2209,1.2296,1.2443,1.2511,1.2581,1.2691,1.2768,1.2852,1.2929,1.3067,1.3131,1.3257,1.3363,1.3556,1.3652,1.3773,1.3792,1.3841,1.3811,1.3786,1.3792,1.3786,1.3794,1.3846,1.3847,1.3848,1.3848,0,1.2323,1.236,1.2469,1.259,1.2679,1.278,1.2881,1.2934,1.3035,1.3119,1.3244,1.3325,1.3485,1.3609,1.3738,1.381,1.3845,1.3856,1.3876,1.3857,1.382,1.3839,1.3706,1.3853,1.3852,1.3852,1.3852,1.3852,1.2391,1.2468,1.2582,1.2699,1.2783,1.2875,1.2957,1.3036,1.3142,1.3278,1.332,1.3449,1.356,1.3736,1.3809,1.391,1.3908,1.3937,1.3945,1.3951,1.3949,1.3802,1.3934,1.3934,1.3934,1.3934,1.3934,0,1.2507,1.2581,1.2687,1.2825,1.2916,1.2938,1.3049,1.3124,1.3236,1.3336,1.3437,1.3578,1.3697,1.3798,1.3921,1.3982,1.4001,1.4011,1.4008,1.4023,1.3944,1.3914,1.3993,1.3993,1.3993,1.3993,1.3993,1.3993,1.2578,1.2708,1.2758,1.2929,1.3003,1.3128,1.3189,1.3273,1.3353,1.3507,1.3605,1.3669,1.3769,1.3898,1.4007,1.4033,1.4076,1.4082,1.4112,1.4037,1.403,1.4023,1.3996,1.409,1.409,1.4184,1.4185,1.4185]}]]